Regional Weather Roundup
Issued by NWS

Home | Current Version | Previous Version | Graphics & Text | Print | Product List | Glossary On
Versions: 1 2 3 4 5 6 7 8 9 10 11 12 13 14 15 16 17 18 19 20 21 22 23 24 25 26 27 28 29 30 31 32 33 34 35 36 37 38 39 40 41 42 43 44 45 46 47 48 49
000
ASUS45 KCYS 031510
RWRWY

WYOMING REGIONAL WEATHER ROUNDUP
NATIONAL WEATHER SERVICE CHEYENNE WY
900 AM MDT FRI JUL 03 2015

NOTE:  "FAIR" INDICATES FEW OR NO CLOUDS BELOW 12,000 FEET
WITH NO SIGNIFICANT WEATHER AND/OR OBSTRUCTIONS TO VISIBILITY.

WYZ001-031600-
YELLOWSTONE NATIONAL PARK

CITY           SKY/WX    TMP DP  RH WIND       PRES   REMARKS
LK YELLOWSTONE   N/A     60  49  66 CALM      30.32S
W YELLOWSTONE  NOT AVBL

$$
WYZ002>013-054>058-071-098>099-031600-
NORTHERN WYOMING

CITY           SKY/WX    TMP DP  RH WIND       PRES   REMARKS
JACKSON        FAIR      63  45  51 CALM      30.24S
CODY           FAIR      72  54  53 N6        30.12S
GREYBULL       FAIR      74  52  46 CALM      30.06F
WORLAND        FAIR      74  58  57 VRB3      30.07F
SHERIDAN       FAIR      68  56  65 CALM      30.08S
BUFFALO        FAIR      72  54  53 N8        30.13S
GILLETTE       FAIR      73  54  51 S12       30.10S
HULETT         FAIR      72  57  60 S5        30.13S
NEWCASTLE      FAIR      70  54  56 MISG      30.15S

$$
WYZ014>020-022>026-101>103-031600-
CENTRAL WYOMING

CITY           SKY/WX    TMP DP  RH WIND       PRES   REMARKS
BIG PINEY      FAIR      65  48  54 S3        30.29S
PINEDALE       FAIR      64  48  55 MISG      30.30F
DUBOIS         FAIR      63  50  63 W3        30.27S
LANDER         FAIR      69  54  58 CALM      30.18S
RIVERTON       FAIR      68  55  63 SW5       30.18S
CASPER         FAIR      71  54  54 S6        30.17S
DOUGLAS        FAIR      69  58  67 SE9       30.16F

$$
WYZ021-027>030-104>119-031600-
SOUTHERN WYOMING

CITY           SKY/WX    TMP DP  RH WIND       PRES   REMARKS
EVANSTON       FAIR      67  48  50 E6        30.28R
KEMMERER       FAIR      70  50  49 NE5       30.30S
FORT BRIDGER   SUNNY     66  50  55 CALM      30.30S
ROCK SPRINGS   FAIR      66  51  58 NE6       30.26R
DIXON          FAIR      68  46  45 SE3       30.25S
RAWLINS        FAIR      62  51  67 VRB6      30.26F
SARATOGA       FAIR      61  48  63 SE3       30.29S
LARAMIE        FAIR      65  50  58 S6        30.29R
CHEYENNE       FAIR      65  56  72 VRB3      30.25R
TORRINGTON     FAIR      68  60  75 SW5       30.13F
PINE BLUFFS    FAIR      70  52  52 CALM      30.21R

$$



USA.gov is the U.S. government's official web portal to all federal, state and local government web resources and services.